カタログに戻る

OV1-19

運用中科学HEO
NORAD 3825·PAYLOAD·🇺🇸 United States

打ち上げ Mar 18, 1969 から Vandenberg Space Force Base

Loading…

次のパス (今後24時間)

TLE

最新Source: Space-Track

元期: Sep 13, 2026, 05:28 UTC

1  3825U 69025C   26256.22806252  .00000147  00000-0  93811-4 0  9996
2  3825 104.7639 354.6745 2676125 314.5399  26.5316  9.58514501993683

AllMySatでOV1-19をリアルタイム追跡

Download on the App Store